UAB "Krinona" - Photos


       /Zyle/

        ..
        ZY510RVB, ZY520RVW robotas-siurblys su stotele Zyle
        BIGPOPCORN Spragesiu aparatas Zyle.pdf    - 1082.52 KB, 2024-01-22 16:50:52
        BORA5000Z Dulkiu siurblys su vandens filtru Zyle.pdf    - 318.23 KB, 2024-01-22 16:50:52
        CNMF-02 Zyle pieno putu plakiklis.pdf    - 150.57 KB, 2024-01-22 16:50:52
        COHD8801 letaeige sulciaspauda.pdf    - 8475.92 KB, 2024-01-22 16:50:54
        COHD8801GNW letaeige sulciaspauda.pdf    - 8475.92 KB, 2024-01-22 16:50:54
        COHD8801GRK letaeige sulciaspauda.pdf    - 8475.92 KB, 2024-01-22 16:50:55
        COHD8801OW letaeige sulciaspauda.pdf    - 8475.92 KB, 2024-01-22 16:50:55
        COHD8801RB letaeige sulciaspauda.pdf    - 8475.92 KB, 2024-01-22 16:50:56
        Emaliuoti ketaus kepimo indai Zyle.pdf    - 446.08 KB, 2024-01-22 16:50:55
        GS16-DJ Prietaisas lyginantis garais.doc    - 1658.89 KB, 2024-01-22 16:50:57
        GS28-BJ Prietaisas, lyginantis garais.doc    - 2000.99 KB, 2024-01-22 16:50:57
        Grilio termometras ZYLE HYPERBBQAT-02 knyga.pdf    - 1515.57 KB, 2024-01-22 16:50:56
        Grilio termometras ZYLE HYPERBBQAT-02.pdf    - 621.06 KB, 2024-01-22 16:50:56
        HZ006DW, HZ036LW, HZ036DW, HZ003LW, HZ003DW Kvapu difuzorius Zyle.pdf    - 1104.18 KB, 2024-01-22 16:50:57
        HZ021WD, HZ021DW Kvapu difuzorius Zyle.pdf    - 1233.58 KB, 2024-01-22 16:50:57
        HZ031LW Kvapu difuzorius Zyle.pdf    - 1136.35 KB, 2024-01-22 16:50:57
        Ismanusis grilio termometras ZYLE, EASYBBQPro3, EASYBBQPro4 knyga.pdf    - 944.76 KB, 2024-01-22 16:50:57
        Ismanusis grilio termometras ZYLE, EASYBBQPro3, EASYBBQPro4.pdf    - 357.52 KB, 2024-01-22 16:50:57
        Išmanusis, belaidis grilio termometras Zyle CXL001, CXL002 knyga.pdf    - 880.92 KB, 2024-01-22 16:50:57
        Išmanusis, belaidis grilio termometras Zyle CXL001, CXL002.pdf    - 394.12 KB, 2024-01-22 16:50:57
        LT - ZY054IW, ZY054WH, ZY054GR, ZY054WD Kvapu difuzorius Zyle Aroma.pdf    - 548.96 KB, 2024-01-22 16:50:58
        LT - ZY063WH Kvapu difuzorius Zyle Aroma.pdf    - 572.88 KB, 2024-01-22 16:50:58
        SH-J120R Zyle letaeige sulciaspaude 2015 05.pdf    - 1506.48 KB, 2024-01-22 16:50:58
        SH-J120W Zyle letaeige sulciaspaude 2015 05.pdf    - 1506.48 KB, 2024-01-22 16:50:58
        ZY001WAF Gruzdintuve Zyle.pdf    - 1092.43 KB, 2024-01-22 16:50:58
        ZY002AF Karsto oro gruzdintuve Zyle.pdf    - 1092.27 KB, 2024-01-22 16:50:58
        ZY002BAF LT.pdf    - 235.03 KB, 2024-01-22 16:50:58
        ZY002BL Kokteiline Zyle.pdf    - 1541.72 KB, 2024-01-22 16:50:58
        ZY003BL Kokteiliu plaktuvas Zyle.pdf    - 405.93 KB, 2024-01-22 16:50:58
        ZY005WD Maisto atlieku smulkintuvas Zyle.pdf    - 1172.5 KB, 2024-01-22 16:50:59
        ZY006BAF Gruzdintuve Zyle.pdf    - 1048.39 KB, 2024-01-22 16:50:59
        ZY006MC daugiafunkcis greitpuodis su karsto oro gruzdintuve.pdf    - 2082.54 KB, 2024-06-13 09:36:53
        ZY007CG kavamale Zyle.pdf    - 1275.16 KB, 2024-06-20 12:04:05
        ZY007WSJ Letaeige sulciaspaude Zyle.pdf    - 17494.69 KB, 2024-01-22 16:51:01
        ZY008SSJ, ZY008RSJ letaeige sulciaspaude Zyle.pdf    - 8479.57 KB, 2024-01-22 16:51:01
        ZY009DAF karsto oro gruzdintuve Zyle.pdf    - 14027.02 KB, 2024-01-22 16:51:03
        ZY009MF pieno putu plaktuvas Zyle.pdf    - 1177.44 KB, 2024-01-22 16:51:02
        ZY011BF.pdf    - 2025.99 KB, 2024-02-05 11:17:49
        ZY011WD maisto atlieku smulkintuvas Zyle.pdf    - 1982.24 KB, 2024-01-25 16:28:36
        ZY013EG Elektrinis grilis Zyle.pdf    - 1456.56 KB, 2024-01-22 16:51:02
        ZY014RBW, ZY014RBB ikraunama kokteiline Zyle.pdf    - 1038.66 KB, 2024-03-04 11:42:00
        ZY015RBP, ZY015RBB, ZY015RBW ikraunama kokteiline Zyle.pdf    - 1451.06 KB, 2024-03-04 11:42:00
        ZY016EG elektrinis grilis.pdf    - 1509.96 KB, 2024-01-22 16:51:02
        ZY017EG Elektrinis grilis Zyle.pdf    - 1285.95 KB, 2024-01-22 16:51:03
        ZY018EG elektrinis grilis.pdf    - 1396.75 KB, 2024-01-22 16:51:03
        ZY019BEG Elektrinis grilis.pdf    - 1118.13 KB, 2024-01-22 16:51:03
        ZY019EG Elektrinis grilis.pdf    - 270.92 KB, 2024-01-22 16:51:03
        ZY01BSM, ZY01RSM Daugiafunkcis mikseris Zyle.pdf    - 3429.8 KB, 2024-01-22 16:51:04
        ZY020GS rankninis garinis lygintuvas.pdf    - 1790.76 KB, 2024-01-22 16:51:04
        ZY023SH multifunkcinis galastuvas Zyle.pdf    - 336 KB, 2024-05-31 14:03:25
        ZY025, ZY026, ZY028, ZY036 Emaliuoti ketaus kepimo indai Zyle.pdf    - 457.76 KB, 2024-01-22 16:51:04
        ZY029AF, ZY030AF Karsto oro gruzdintuve Zyle.pdf    - 2179.17 KB, 2024-01-22 16:51:05
        ZY02BL vakuuminis blenderis-kokteiline.pdf    - 375.61 KB, 2024-01-22 16:51:05
        ZY02DW.pdf    - 272.84 KB, 2024-01-22 16:51:05
        ZY030GS Prietaisas lyginantis karstais garais Zyle.pdf    - 1260.66 KB, 2024-01-22 16:51:05
        ZY031AF, ZY032AF Karsto oro gruzdintuve Zyle.pdf    - 1874.49 KB, 2024-04-25 14:28:15
        ZY033SH multifunkcinis galastuvas Zyle.pdf    - 126.8 KB, 2024-05-31 14:03:25
        ZY03AP Oro valytuvas Zyle.pdf    - 31284.5 KB, 2024-01-22 16:51:11
        ZY03GS karstais garais lyginantis prietaisas - latviu vertimui.pdf    - 260.68 KB, 2024-01-22 16:51:05
        ZY051SC demes salinantis siurblys Zyle.pdf    - 9743.34 KB, 2024-01-22 16:51:07
        ZY054IW, ZY054WH, ZY054GR, ZY054WD Kvapu difuzorius Zyle Aroma.pdf    - 548.96 KB, 2024-01-22 16:51:08
        ZY055SH multifunkcinis galastuvas Zyle.e.pdf    - 1093.06 KB, 2024-05-31 14:03:25
        ZY05BAF, ZY05WAF gruzdintuve.pdf    - 1293.32 KB, 2024-01-22 16:51:08
        ZY063WH Kvapu difuzorius Zyle Aroma.pdf    - 572.88 KB, 2024-01-22 16:51:08
        ZY06AP Oro valytuvas Zyle.pdf    - 16245.73 KB, 2024-01-22 16:51:11
        ZY06AP, ZY08AP Oro valytuvas Zyle.pdf    - 1474.99 KB, 2024-01-22 16:51:11
        ZY06WK, ZY07BK Elektrinis virdulys Zyle.pdf    - 1090.22 KB, 2024-01-22 16:51:11
        ZY072AF karsto oro gruzdintuve Zyle.pdf    - 1417.96 KB, 2024-04-29 12:01:27
        ZY080BF, ZY050BF, ZY030BF ventiliatoriai be menciu.pdf    - 1305.5 KB, 2024-02-05 11:16:38
        ZY08AP Oro valytuvas Zyle.pdf    - 25586.18 KB, 2024-01-22 16:51:17
        ZY090BF.pdf    - 2205.5 KB, 2024-02-05 11:17:09
        ZY10001GS prietaisas lyginantis karstais garais.pdf    - 503.08 KB, 2024-01-22 16:51:11
        ZY100FD maisto dziovykle.pdf    - 1236.85 KB, 2024-01-22 16:51:12
        ZY100SSJ, ZY100RSJ Letaeige sulciaspaude Zyle.pdf    - 142052.49 KB, 2024-01-22 16:51:34
        ZY100SVC Zemos temperaturos virimo irenginys Zyle.pdf    - 2465.43 KB, 2024-02-05 11:13:59
        ZY100VS Vakuumavimo aparatas Zyle.pdf    - 2506.1 KB, 2024-02-05 11:15:16
        ZY101CG kavamale Zyle.pdf    - 1586.52 KB, 2024-06-20 12:04:05
        ZY101HG Oro drekintuvas - valytuvas Zyle.pdf    - 1313.1 KB, 2024-01-22 16:51:17
        ZY101SD Avalynes dziovintuvas Zyle.pdf    - 1058.19 KB, 2024-01-22 16:51:18
        ZY103HG Oro drekintuvas - valytuvas Zyle.pdf    - 1305.42 KB, 2024-01-22 16:51:18
        ZY108LNW, ZY109LNB, ZY118LN, ZY119LN Puku surinkejas Zyle.pdf    - 356.99 KB, 2024-03-12 10:15:09
        ZY10DSB, ZY10DSW Skysto muilo dozatorius Zyle.pdf    - 1118.23 KB, 2024-01-22 16:51:18
        ZY110FD maisto dziovykle.pdf    - 1168.45 KB, 2024-01-22 16:51:19
        ZY116FD Maisto dziovykle Zyle.pdf    - 1168.85 KB, 2024-01-22 16:51:19
        ZY11BAF Karsto oro gruzdintuve Zyle.pdf    - 1281.84 KB, 2024-01-22 16:51:19
        ZY1203IM Leduku gaminimo aparatas Zyle.pdf    - 1252.33 KB, 2024-01-22 16:51:20
        ZY120PM kukuruzu spragesiu aparatas.pdf    - 1086.32 KB, 2024-01-22 16:51:20
        ZY1221IM Leduku gaminimo aparatas Zyle.pdf    - 1380.55 KB, 2024-01-22 16:51:20
        ZY12MS sprando ir nugaros masazuoklis.pdf    - 16237.14 KB, 2024-01-22 16:51:24
        ZY130PM kukuruzu spragesiu aparatas.pdf    - 1078.72 KB, 2024-01-22 16:51:24
        ZY13KSBLBBQ2, ZY13KSRDBBQ2, ZY13KSGYBBQ2, ZY13KSGRBBQ2 Kamado grilis Zyle.pdf    - 363.36 KB, 2024-01-22 16:51:24
        ZY13KSRDBBQ2, ZY13KSGYBBQ2, ZY13KSGRBBQ2 Kamado grilis Zyle.pdf    - 366.87 KB, 2024-01-22 16:51:25
        ZY14PGB, ZY15PGS, ZY16PGG, ZY17PGW Druskos ir pipiru malunelis Zyle.pdf    - 1094.33 KB, 2024-01-22 16:51:25
        ZY150TH Grilio termometras Zyle.pdf    - 1106.09 KB, 2024-01-22 16:51:25
        ZY1588IM Leduku gaminimo aparatas Zyle.pdf    - 1647.41 KB, 2024-01-22 16:51:26
        ZY15IS Zyle lyginimo sistema.pdf    - 349.56 KB, 2024-01-22 16:51:26
        ZY15KW__ZY16KW__ZY12KW__elektrinis_virdulys.pdf    - 700.01 KB, 2024-01-22 16:51:26
        ZY161GS karstais garais lyginantis prietaisas Zyle1.pdf    - 1705.14 KB, 2024-01-22 16:51:27
        ZY16BBQ Zyle kamado grilis.pdf    - 922.33 KB, 2024-01-22 16:51:27
        ZY16KSGRSET, ZY16KSRDSET, ZY16KSBLSET Kamado grilis Zyle.pdf    - 1720.42 KB, 2024-01-22 16:51:27
        ZY171BLK, ZY171BRK, ZY171GRK elektrinis virdulys.pdf    - 559.49 KB, 2024-01-22 16:51:28
        ZY185WM vafline Zyle .pdf    - 1563.62 KB, 2024-02-05 11:11:35
        ZY186WM vafline Zyle manual.pdf    - 1550.88 KB, 2024-02-05 11:10:22
        ZY18BBQ Zyle kamado grilis.pdf    - 922.33 KB, 2024-01-22 16:51:28
        ZY18BLSET, ZY22BLSET, ZY22GRSET, ZY24BLSET, ZY24GRSET, ZY27BLSET kamado grilis Zyle.pdf    - 1274.46 KB, 2024-01-22 16:51:28
        ZY18KSBLSET, ZY18KSGRSET, ZY18KSRDSET, ZY18KSGYSET Kamado grilis Zyle.pdf    - 1763.64 KB, 2024-01-22 16:51:29
        ZY18RLBLSET Kamado grilis Zyle.pdf    - 1257.11 KB, 2024-01-22 16:51:29
        ZY190WM Vafline Zyle .pdf    - 1550.75 KB, 2024-02-05 11:11:13
        ZY192MG mesmale Zyle.pdf    - 847.5 KB, 2024-02-23 10:28:43
        ZY192TMG mesmale su pomidoru sulciaspaudes priedu Zyle.pdf    - 936.13 KB, 2024-02-23 10:28:42
        ZY195MG mesmale.pdf    - 1494.68 KB, 2024-01-22 16:51:29
        ZY198MG mesmale.pdf    - 3153.47 KB, 2024-01-22 16:51:30
        ZY19MS sprando ir nugaros masazuoklis.pdf    - 5398.53 KB, 2024-01-22 16:51:31
        ZY19MS.pdf    - 11555.75 KB, 2024-01-22 16:51:33
        ZY200GS karstais garais lyginantis prietaisas Zyle.pdf    - 1199.43 KB, 2024-01-22 16:51:33
        ZY200VS vakuumatorius - naudoojo instrukcijos..pdf    - 534.97 KB, 2024-01-22 16:51:33
        ZY201HB oro drekintuvas.pdf    - 143.81 KB, 2024-01-22 16:51:34
        ZY201HW oro drekintuvas.pdf    - 143.81 KB, 2024-01-22 16:51:34
        ZY203JC, ZY205JC Centrifugine sulciaspaude Zyle.pdf    - 1456.81 KB, 2024-02-05 11:09:40
        ZY213AF, ZY214AF dviguba karšto oro gruzdintuvė Zyle.pdf    - 1010.68 KB, 2024-01-22 16:51:34
        ZY213AF, ZY214AF dviguba karšto oro gruzdintuvė Zyle_KNYGA.pdf    - 3689.5 KB, 2024-01-22 16:51:34
        ZY21RLBLSET, ZY21RLGRSET, ZY21RLRDSET, ZY24RLBLSET, ZY24RLGRSET, ZY24RLRDSET Kamado grilis Zyle.pdf    - 1272.24 KB, 2024-01-22 16:51:34
        ZY220GS karstais garais lyginantis prietaisas.pdf    - 609.27 KB, 2024-01-22 16:51:34
        ZY222GS Prietaisas lyginantis karstais garais Zyle.pdf    - 1518.17 KB, 2024-01-22 16:51:35
        ZY226BL, ZY226GR Puku rinkiklis Zyle.pdf    - 1258.45 KB, 2024-01-22 16:51:35
        ZY22BBQ Zyle kamado grilis.pdf    - 922.33 KB, 2024-01-22 16:51:35
        ZY22KSBLSET Kamado grilis Zyle.pdf    - 17467.63 KB, 2024-01-22 16:51:38
        ZY22KSBLSET, ZY22KSGRSET, ZY22KSRDSET, ZY24KSBLDISET manual copy.pdf    - 19970.49 KB, 2024-01-22 16:51:39
        ZY22KSMGSET, ZY24KSMGDISET, ZY26KSMGSET Kamado grilis Zyle.pdf    - 918.86 KB, 2024-01-22 16:51:38
        ZY23MG Smuginis masazuoklis Zyle.pdf    - 1132.44 KB, 2024-01-22 16:51:38
        ZY24BBQ Zyle kamado grilis.pdf    - 922.33 KB, 2024-01-22 16:51:38
        ZY24KSBLDISET kamado grilio naudojimo instrukcija copy.pdf    - 8586.87 KB, 2024-01-22 16:51:40
        ZY25MC masazine kede Zyle.pdf    - 9229.19 KB, 2024-01-22 16:51:41
        ZY25MG, ZY26MG Smuginis masazuoklis Zyle.pdf    - 1089.23 KB, 2024-01-22 16:51:40
        ZY26NM.pdf    - 1634.59 KB, 2024-01-22 16:51:40
        ZY275MG mesmale.pdf    - 1223.2 KB, 2024-01-22 16:51:40
        ZY27BBQ Zyle kamado grilis.pdf    - 922.33 KB, 2024-01-22 16:51:40
        ZY27MGBL, ZY28MGGR, ZY29MGRD Smuginis masazuoklis Zyle.pdf    - 1126.95 KB, 2024-01-22 16:51:41
        ZY280MF, ZY281MF pieno putu plaktuvas.pdf    - 436.62 KB, 2024-01-22 16:51:41
        ZY280WK - ZY281BK - ZY282GK - elektrinis virdulys.pdf    - 1094.35 KB, 2024-01-22 16:51:41
        ZY300GS drabuziu garintuvas.pdf    - 1284.39 KB, 2024-01-22 16:51:41
        ZY300RV Greito paleidimo vadovas.pdf    - 438.83 KB, 2024-01-22 16:51:41
        ZY300RV Plaunantis robotas siurblys Zyle.pdf    - 1590.79 KB, 2024-01-22 16:51:42
        ZY301LNP, ZY301LNB Puku rinkiklis Zyle.pdf    - 386.72 KB, 2024-01-22 16:51:41
        ZY303GC Langu valytuvas Zyle.pdf    - 626.58 KB, 2024-01-22 16:51:42
        ZY305LNG puku surinkejas.pdf    - 217.83 KB, 2024-01-22 16:51:42
        ZY306SV cirkuliatorius Zyle.pdf    - 1616.23 KB, 2024-01-22 16:51:42
        ZY310JC, ZY300JC sulciaspaude.pdf    - 1098.69 KB, 2024-01-22 16:51:42
        ZY316I, ZY316S, ZY316C MasterCoffee elektrinis virdulys.pdf    - 133.72 KB, 2024-01-22 16:51:42
        ZY319BL kokteiline.pdf    - 18329.72 KB, 2024-01-22 16:51:44
        ZY320VS Vakuumavimo aparatas Zyle.pdf    - 1165.29 KB, 2024-01-22 16:51:42
        ZY333FD - maisto dziovykle Zyle.pdf    - 1153.15 KB, 2024-01-22 16:51:43
        ZY333GS prietaisas lyginantis karstais garais.pdf    - 330.35 KB, 2024-01-22 16:51:43
        ZY338FD - maisto dziovykle.pdf    - 1212.63 KB, 2024-01-22 16:51:44
        ZY339FD maisto dziovykle.pdf    - 1883.71 KB, 2024-01-22 16:51:44
        ZY350GS prietaisas lyginantis karstais garais copy.pdf    - 292.15 KB, 2024-01-22 16:51:45
        ZY358MG Mesmale Zyle.pdf    - 1213.98 KB, 2024-01-22 16:51:46
        ZY35FM.pdf    - 6293.7 KB, 2024-01-22 16:51:46
        ZY380FD maisto dziovykle Zyle.pdf    - 1263.75 KB, 2024-01-22 16:51:46
        ZY384MG Mesmale Zyle.pdf    - 1440.86 KB, 2024-01-22 16:51:46
        ZY400WR Grindu plovimo robotas Zyle.pdf    - 2027.55 KB, 2024-01-22 16:51:47
        ZY408FP maisto kombainas.pdf    - 346.48 KB, 2024-01-22 16:51:47
        ZY411FP Daugiafunkcis virtuvinis kombainas Zyle.pdf    - 2370.33 KB, 2024-01-22 16:51:47
        ZY411FP manual.pdf    - 899.2 KB, 2024-01-22 16:51:47
        ZY412FP Daugiafunkcis virtuvinis kombainas Zyle.pdf    - 2480.34 KB, 2024-01-22 16:51:47
        ZY468GS nesiojamas prietaisas lyginantis karstais garais.pdf    - 1242.16 KB, 2024-01-22 16:51:47
        ZY500LCC Cukraus vatos gaminimo aparatas Zyle.pdf    - 1195.67 KB, 2024-01-22 16:51:48
        ZY501SD Avalynes dziovintuvas Zyle.pdf    - 1063.08 KB, 2024-01-22 16:51:48
        ZY502BAF, ZY502WAF, ZY502GAF karsto oro gruzdintuve Zyle.pdf    - 1566 KB, 2024-02-22 11:51:50
        ZY502MC Multifunkcis elektrinis greitpuodis Zyle.pdf    - 1368.3 KB, 2024-01-22 16:51:48
        ZY505VC ikraunamas dulkiu siurblys copy (1).pdf    - 2653.1 KB, 2024-01-22 16:51:48
        ZY50RV Zyle Wetbot greito paleidimo instrukcija.pdf    - 2124.42 KB, 2024-06-21 11:39:09
        ZY50RV Zyle Wetbot instrukcija.pdf    - 3708.02 KB, 2024-01-22 16:51:49
        ZY510RVB, ZY520RVW robotas-siurblys su stotele Zyle.pdf    - 2019.07 KB, 2024-02-19 11:32:31
        ZY528BLGS instrukcija.pdf    - 149.02 KB, 2024-01-22 16:51:48
        ZY555CM, ZY556CM kavos aparatas Zyle.pdf    - 1275.79 KB, 2024-01-24 17:06:33
        ZY557CM, ZY558CM kavos aparatas Zyle..pdf    - 1895.91 KB, 2024-01-24 17:06:34
        ZY559CM kavos aparatas Zyle..pdf    - 1615.6 KB, 2024-01-24 17:06:34
        ZY600CF, ZY800CF, ZY1000CF Kavinukas su nuspaudimu Zyle.pdf    - 446.9 KB, 2024-01-22 16:51:49
        ZY600VC dulkiu siurblys.pdf    - 7814.56 KB, 2024-01-22 16:51:50
        ZY601SV Cirkuliatorius Zyle.pdf    - 1593.69 KB, 2024-01-22 16:51:49
        ZY601VC pakraunamas dulkiu siurblys Zyle.pdf    - 660.85 KB, 2024-01-22 16:51:49
        ZY602VC ikraunamas dulkiu siurblys.pdf    - 1433.9 KB, 2024-04-16 14:04:17
        ZY612VS Vakuumatorius - naudotojo instrukcija.pdf    - 1032.07 KB, 2024-01-22 16:51:50
        ZY62MS sprando ir nugaros masazuoklis.pdf    - 15311.45 KB, 2024-01-22 16:51:53
        ZY658FC Maisto pjaustykle Zyle.pdf    - 1074.12 KB, 2024-01-22 16:51:50
        ZY65GS karstais garais lyginantis prietaisas.pdf    - 1424.48 KB, 2024-01-22 16:51:51
        ZY66GS karstais garais lyginantis prietaisas.pdf    - 565.78 KB, 2024-01-22 16:51:51
        ZY672B, ZY671W kapsulinis kavos aparatas Zyle Notte.pdf    - 763.96 KB, 2024-03-07 15:58:09
        ZY68GS karstais garais lyginantis prietaisas.pdf    - 5366.85 KB, 2024-01-22 16:51:52
        ZY69HF Zyle automatine daugiafunkcine krosnele - gruzdintuve.pdf    - 816.91 KB, 2024-01-22 16:51:53
        ZY6BVC rankinis ikraunamas siurblys Zyle.pdf    - 1988.12 KB, 2024-02-22 10:36:49
        ZY701VC Ikraunamas dulkiu siurblys Zyle.pdf    - 817.36 KB, 2024-01-22 16:51:53
        ZY703BL, ZY706BL Kokteiline Zyle.pdf    - 940.65 KB, 2024-01-22 16:51:53
        ZY708FD maisto dziovykle.pdf    - 203.49 KB, 2024-01-22 16:51:53
        ZY750SB, ZY750SR daugiafunkce pjaustykle Zyle.pdf    - 1733.86 KB, 2024-01-22 16:51:54
        ZY750WD maisto atlieku smulkintuvas Zyle.pdf    - 1348.33 KB, 2024-03-07 12:13:42
        ZY801DAF, ZY802DAF karsto oro gruzdintuve Zyle.pdf    - 1123.85 KB, 2024-03-25 15:07:43
        ZY801GSM daugiafunkcis mikseris Zyle.pdf    - 2053.51 KB, 2024-01-22 16:51:54
        ZY801MF ir ZY802MF pieno putu plaktuvas Zyle.pdf    - 1220.88 KB, 2024-01-22 16:51:54
        ZY802HB oro drekintuvas.pdf    - 811.31 KB, 2024-01-22 16:51:54
        ZY802HS oro drekintuvas.pdf    - 811.31 KB, 2024-01-22 16:51:54
        ZY806MC daugiafunkcis greitpuodis ir karsto oro gruzdintuve Zyle.pdf    - 2576.15 KB, 2024-06-13 09:36:53
        ZY811GS prietaisas lyginantis karstais garais copy.pdf    - 164.47 KB, 2024-01-22 16:51:54
        ZY811GS prietaisas lyginantis karstais garais.pdf    - 164.47 KB, 2024-01-22 16:51:54
        ZY818BL Zyle kokteiline.pdf    - 296.31 KB, 2024-01-22 16:51:55
        ZY818BL kokteiline.pdf    - 1128.34 KB, 2024-01-22 16:51:54
        ZY8225BL Maisto smulkintuvas Zyle.pdf    - 1182.85 KB, 2024-01-22 16:51:55
        ZY833BK elektrinis virduys Zyle.pdf    - 1639.73 KB, 2024-01-22 16:51:55
        ZY848BL Zyle kokteiline.pdf    - 368.35 KB, 2024-01-22 16:51:55
        ZY853BL MAISTO TRINTUVAS.pdf    - 140.05 KB, 2024-01-22 16:51:55
        ZY858BL kokteiline.pdf    - 138.52 KB, 2024-01-22 16:51:55
        ZY860IR lygintuvas su garu funkcija.pdf    - 577.69 KB, 2024-03-25 15:01:08
        ZY862WK elektrinis virdulys Zyle.pdf    - 531.81 KB, 2024-05-08 15:26:58
        ZY863BL MAISTO TRINTUVAS.pdf    - 145.39 KB, 2024-01-22 16:51:55
        ZY885SAF, ZY885RAF, ZY885BAF karsto oro gruzdintuve Zyle instrukcija.pdf    - 960.33 KB, 2024-01-22 16:51:55
        ZY885SAF, ZY885RAF, ZY885BAF, ZY895SAF karsto oro gruzdintuve Zyle instrukcija.pdf    - 960.33 KB, 2024-01-22 16:51:55
        ZY888BL Profesionali kokteiline Zyle.pdf    - 3248.34 KB, 2024-01-22 16:51:56
        ZY88GNSJ letaeige sulciaspauda.pdf    - 8475.92 KB, 2024-01-22 16:51:57
        ZY88GRSJ letaeige sulciaspauda.pdf    - 8475.92 KB, 2024-01-22 16:51:57
        ZY88OWSJ letaeige sulciaspauda.pdf    - 8475.92 KB, 2024-01-22 16:51:59
        ZY88RBSJ letaeige sulciaspauda.pdf    - 8475.92 KB, 2024-01-22 16:51:59
        ZY88RSJ letaeige sulciaspauda.pdf    - 8475.92 KB, 2024-01-22 16:52:00
        ZY912GS prietaisas lyginantis karstais garais.pdf    - 164.46 KB, 2024-01-22 16:51:59
        ZY917MF pieno putu plaktuvas Zyle.pdf    - 1184.99 KB, 2024-06-20 12:04:06
        ZY918MF pieno putu plaktuvas Zyle.pdf    - 1465.87 KB, 2024-06-20 12:04:06
        ZY941SC demiu valymo irenginys su garais.pdf    - 708.23 KB, 2024-03-15 11:51:51
        ZY960VC Vakuumavimo aparatas Zyle.pdf    - 2560.93 KB, 2024-02-05 11:15:37
        ZY9815SS, ZY9815WH, ZY9815BL Ikraunamas pieno putu plaktuvas Zyle.pdf    - 767.44 KB, 2024-01-22 16:51:59
        ZYKSLIGHTER grilio uzdegiklis Zyle.pdf    - 3174.43 KB, 2024-01-22 16:52:01
        ZYLE Maistinio termoso naudotojo vadovas.pdf    - 445.95 KB, 2024-01-22 16:52:00
        ZYPROMAX maisto dziovykle Zyle V2021.pdf    - 2211.34 KB, 2024-01-22 16:52:00
        ZYPROMAX maisto dziovykle Zyle.pdf    - 1284.61 KB, 2024-01-22 16:52:00
        ZYPROMID maisto dziovykle Zyle.pdf    - 1307.27 KB, 2024-01-22 16:52:01
        ZYWETCLEAN Ikraunamas dulkiu siurblys Zyle.pdf    - 1430.85 KB, 2024-01-22 16:52:01
        ZYWETCLEAN ikraunamas dulkiu siurblys_LV.odt    - 1365.58 KB, 2024-01-22 16:52:01
        Zyle kamado grilio instrukcija ZY18,22,24,27SET modeliams.pdf    - 1297.85 KB, 2024-01-22 16:52:00


UAB "Krinona" tel. +370 649 40000